Time,TemperatureF,DewpointF,PressureIn,WindDirection,WindDirectionDegrees,WindSpeedMPH,WindSpeedGustMPH,Humidity,HourlyPrecipIn,Conditions,Clouds,dailyrainin,SoftwareType,DateUTC
2013-02-01 00:02:00,16.0,8.0,30.36,NNW,327,11.0,14.0,69,0.00,,,0.00,,2013-02-01 06:02:00,
2013-02-01 00:11:00,16.0,8.0,30.36,NNW,327,11.0,14.0,69,0.00,,,0.00,,2013-02-01 06:11:00,
2013-02-01 00:22:00,15.0,7.0,30.38,NW,309,5.0,12.0,71,0.00,,,0.00,,2013-02-01 06:22:00,
2013-02-01 00:32:00,14.0,6.0,30.39,WNW,290,10.0,12.0,69,0.00,,,0.00,,2013-02-01 06:32:00,
2013-02-01 00:42:00,14.0,6.0,30.39,WNW,290,10.0,12.0,69,0.00,,,0.00,,2013-02-01 06:42:00,
2013-02-01 00:52:00,14.0,6.0,30.39,WNW,290,10.0,12.0,69,0.00,,,0.00,,2013-02-01 06:52:00,
2013-02-01 01:02:00,14.0,6.0,30.39,WNW,290,10.0,12.0,69,0.00,,,0.00,,2013-02-01 07:02:00,
2013-02-01 01:12:00,14.0,6.0,30.39,WNW,290,10.0,12.0,69,0.00,,,0.00,,2013-02-01 07:12:00,
2013-02-01 16:21:00,23.0,8.0,30.51,SW,226,1.0,1.0,52,0.00,,,0.00,,2013-02-01 22:21:00,
2013-02-01 16:32:00,22.0,8.0,30.51,South,189,3.0,3.0,53,0.00,,,0.00,,2013-02-01 22:32:00,
2013-02-01 16:42:00,22.0,8.0,30.51,South,189,3.0,3.0,53,0.00,,,0.00,,2013-02-01 22:42:00,
2013-02-01 16:51:00,22.0,8.0,30.51,South,177,0.0,2.0,54,0.00,,,0.00,,2013-02-01 22:51:00,
2013-02-01 17:01:00,22.0,8.0,30.50,SSE,164,3.0,3.0,53,0.00,,,0.00,,2013-02-01 23:01:00,
2013-02-01 17:11:00,22.0,8.0,30.50,SSE,164,3.0,3.0,53,0.00,,,0.00,,2013-02-01 23:11:00,
2013-02-01 17:21:00,22.0,8.0,30.50,SSE,154,1.0,3.0,54,0.00,,,0.00,,2013-02-01 23:21:00,
2013-02-01 17:31:00,22.0,9.0,30.50,SSE,154,3.0,3.0,56,0.00,,,0.00,,2013-02-01 23:31:00,
2013-02-01 17:41:00,22.0,9.0,30.50,SSE,154,3.0,3.0,56,0.00,,,0.00,,2013-02-01 23:41:00,
2013-02-01 17:52:00,21.0,8.0,30.49,SSE,154,1.0,3.0,57,0.00,,,0.00,,2013-02-01 23:52:00,
2013-02-01 18:02:00,21.0,10.0,30.48,ESE,113,1.0,2.0,61,0.00,,,0.00,,2013-02-02 00:02:00,
2013-02-01 18:11:00,21.0,10.0,30.48,ESE,113,1.0,2.0,61,0.00,,,0.00,,2013-02-02 00:11:00,
2013-02-01 18:21:00,21.0,10.0,30.48,ESE,113,0.0,0.0,62,0.00,,,0.00,,2013-02-02 00:21:00,
2013-02-01 18:32:00,21.0,10.0,30.49,SSE,168,1.0,1.0,62,0.00,,,0.00,,2013-02-02 00:32:00,
2013-02-01 18:42:00,21.0,10.0,30.49,SSE,168,1.0,1.0,62,0.00,,,0.00,,2013-02-02 00:42:00,
2013-02-01 18:52:00,21.0,10.0,30.49,SSE,168,1.0,1.0,62,0.00,,,0.00,,2013-02-02 00:52:00,
2013-02-01 19:02:00,21.0,11.0,30.51,SSE,168,1.0,2.0,64,0.00,,,0.00,,2013-02-02 01:02:00,
2013-02-01 19:11:00,21.0,11.0,30.51,SSE,168,1.0,2.0,64,0.00,,,0.00,,2013-02-02 01:11:00,
2013-02-01 19:21:00,21.0,11.0,30.50,SSE,168,3.0,3.0,66,0.00,,,0.00,,2013-02-02 01:21:00,
2013-02-01 19:32:00,21.0,11.0,30.49,South,186,0.0,1.0,64,0.00,,,0.00,,2013-02-02 01:32:00,
2013-02-01 19:41:00,21.0,11.0,30.49,South,186,0.0,1.0,64,0.00,,,0.00,,2013-02-02 01:41:00,
2013-02-01 19:52:00,21.0,11.0,30.49,South,186,0.0,2.0,65,0.00,,,0.00,,2013-02-02 01:52:00,
2013-02-01 20:01:00,22.0,11.0,30.48,South,186,0.0,0.0,63,0.00,,,0.00,,2013-02-02 02:01:00,
2013-02-01 20:11:00,22.0,11.0,30.48,South,186,0.0,0.0,63,0.00,,,0.00,,2013-02-02 02:11:00,
2013-02-01 20:21:00,22.0,11.0,30.47,South,186,0.0,0.0,63,0.00,,,0.00,,2013-02-02 02:21:00,
2013-02-01 20:32:00,22.0,11.0,30.46,South,186,0.0,0.0,62,0.00,,,0.00,,2013-02-02 02:32:00,
2013-02-01 20:42:00,22.0,11.0,30.46,South,186,0.0,0.0,62,0.00,,,0.00,,2013-02-02 02:42:00,
2013-02-01 20:52:00,22.0,11.0,30.46,South,186,0.0,0.0,62,0.00,,,0.00,,2013-02-02 02:52:00,
2013-02-01 21:02:00,22.0,12.0,30.45,South,186,2.0,3.0,64,0.00,,,0.00,,2013-02-02 03:02:00,
2013-02-01 21:11:00,23.0,13.0,30.45,South,186,2.0,2.0,64,0.00,,,0.00,,2013-02-02 03:11:00,
2013-02-01 21:21:00,23.0,13.0,30.45,South,186,2.0,2.0,64,0.00,,,0.00,,2013-02-02 03:21:00,
2013-02-01 21:32:00,23.0,13.0,30.44,South,185,2.0,2.0,64,0.00,,,0.00,,2013-02-02 03:32:00,
2013-02-01 21:42:00,23.0,13.0,30.43,SE,145,3.0,3.0,64,0.00,,,0.00,,2013-02-02 03:42:00,
2013-02-01 21:51:00,23.0,13.0,30.43,SE,145,3.0,3.0,64,0.00,,,0.00,,2013-02-02 03:51:00,
2013-02-01 22:01:00,23.0,13.0,30.42,South,171,0.0,3.0,65,0.00,,,0.00,,2013-02-02 04:01:00,
2013-02-01 22:11:00,23.0,13.0,30.42,South,171,0.0,3.0,65,0.00,,,0.00,,2013-02-02 04:11:00,
2013-02-01 22:21:00,24.0,14.0,30.42,South,171,2.0,4.0,64,0.00,,,0.00,,2013-02-02 04:21:00,
2013-02-01 22:32:00,24.0,14.0,30.41,South,171,2.0,3.0,65,0.00,,,0.00,,2013-02-02 04:32:00,
2013-02-01 22:41:00,24.0,14.0,30.41,South,171,2.0,3.0,65,0.00,,,0.00,,2013-02-02 04:41:00,
2013-02-01 22:51:00,24.0,14.0,30.40,South,171,2.0,3.0,65,0.00,,,0.00,,2013-02-02 04:51:00,
2013-02-01 23:03:00,24.0,15.0,30.40,South,172,2.0,2.0,67,0.00,,,0.00,,2013-02-02 05:03:00,
2013-02-01 23:12:00,24.0,15.0,30.40,South,172,2.0,2.0,67,0.00,,,0.00,,2013-02-02 05:12:00,
2013-02-01 23:22:00,24.0,15.0,30.40,South,172,3.0,3.0,67,0.00,,,0.00,,2013-02-02 05:22:00,
2013-02-01 23:33:00,24.0,14.0,30.40,ESE,115,2.0,3.0,65,0.00,,,0.00,,2013-02-02 05:33:00,
2013-02-01 23:41:00,24.0,14.0,30.40,ESE,115,2.0,3.0,65,0.00,,,0.00,,2013-02-02 05:41:00,
2013-02-01 23:52:00,24.0,14.0,30.40,South,182,1.0,4.0,65,0.00,,,0.00,,2013-02-02 05:52:00,